Content
SEND FEEDBACK

Daily
Averages
Monthly
Summary
United States of America

ASHVILLE, NORTH CAROLINA


Home > North America > United States > North Carolina
Elevation: 2240 feet     Latitude: 35 36N     Longitude: 082 32W

WEATHER
 
SELECT A DAY
Number of Records: 228,713;   Date Range: 1/1/95 - 9/29/14
 
SHARE

PRINT THIS DATA

[ ← Previous Day ]
WEATHER ALMANAC - MARCH 14, 2013
[ Next Day → ]
[ °C ]   °F
Weather ElementAverageHighLow
Temperature34 °F46 °F (3:54 pm)25 °F (6:54 am)
Dewpoint11.8 °F16 °F (11:54 pm)3.9 °F (11:54 am)
Humidity42.4 %60 % (7:54 am)24 % (3:54 pm)
Barometer30.23 in30.30 in (9:54 am)30.17 in (1:54 am)
Wind Speed14.2 mph26.5 mph (3:54 am)
Wind Gust34.5 mph (6:54 am)
Weather ElementAverage
Visibility10 mi
Wind DirectionNW (315.7 °)

Weather ElementTotal
Precipitation---
Heating Degree Days29.5 (Base 65)
Averaged from 23 records on March 14, 2013
WEATHER CONDITIONS BREAKOUT
WIND DIRECTION BREAKOUT
WEATHER BY HOUR - MARCH 14, 2013
[ °C ]   °F
Local TimeTemperatureDewpointHumidityBarometerVisibilityWind DirectionWind SpeedGust SpeedPrecipitationEventsConditions
1:54 AM28.0 °F12.9 °F53 %30.17 in10.0 miNNW (340°)23.0 mph29.9 mphOvercast
2:54 AM28.0 °F12.9 °F53 %30.18 in10.0 miNorth (350°)19.6 mph32.2 mphOvercast
3:54 AM27.0 °F12.9 °F56 %30.19 in10.0 miNNW (340°)26.5 mph32.2 mphMostly Cloudy
4:54 AM27.0 °F12.9 °F56 %30.19 in10.0 miNNW (340°)20.7 mph33.4 mphMostly Cloudy
5:54 AM26.1 °F12.0 °F55 %30.22 in10.0 miNorth (350°)18.4 mph31.1 mphClear
6:54 AM25.0 °F12.0 °F58 %30.24 in10.0 miNNW (340°)23.0 mph34.5 mphClear
7:54 AM25.0 °F12.9 °F60 %30.27 in10.0 miNNW (340°)20.7 mph32.2 mphClear
8:54 AM26.1 °F12.9 °F58 %30.29 in10.0 miNorth (350°)15.0 mph25.3 mphClear
9:54 AM28.0 °F12.0 °F51 %30.30 in10.0 miNorth (360°)15.0 mph25.3 mphClear
10:54 AM30.9 °F9.0 °F40 %30.30 in10.0 miNNW (340°)16.1 mph21.9 mphClear
11:54 AM35.1 °F3.9 °F27 %30.30 in10.0 miNorth (350°)12.7 mph25.3 mphClear
12:54 PM39.0 °F7.0 °F27 %30.28 in10.0 miNorth (360°)9.2 mph17.3 mphClear
1:54 PM41.0 °F9.0 °F27 %30.27 in10.0 miNNE (20°)8.1 mph19.6 mphClear
2:54 PM44.1 °F10.0 °F25 %30.23 in10.0 miNorth (350°)10.4 mph18.4 mphClear
3:54 PM46.0 °F10.9 °F24 %30.20 in10.0 miNorth (10°)12.7 mph19.6 mphClear
4:54 PM45.0 °F10.9 °F25 %30.19 in10.0 miNorth (350°)11.5 mph20.7 mphClear
5:54 PM43.0 °F10.9 °F27 %30.18 in10.0 miNorth (350°)15.0 mphClear
6:54 PM43.0 °F12.0 °F28 %30.18 in10.0 miNorth (350°)12.7 mphClear
7:54 PM39.0 °F14.0 °F36 %30.20 in10.0 miNNW (340°)11.5 mphClear
8:54 PM37.0 °F15.1 °F41 %30.21 in10.0 miNNW (340°)10.4 mphClear
9:54 PM34.0 °F15.1 °F46 %30.22 in10.0 miNW (310°)4.6 mphClear
10:54 PM33.1 °F15.1 °F48 %30.23 in10.0 miNNW (340°)3.5 mphClear
11:54 PM30.9 °F16.0 °F54 %30.22 in10.0 miNNW (340°)5.8 mphClear
Hourly data recorded from KAVL, located miles away from Ashville, North Carolina







STORIES FROM OUR PARTNERS